{"data":{"norad_id":64890,"epoch":"2026-09-19T22:57:46.352736Z","epoch_age_seconds":65147,"freshness":"FRESH","line1":"1 64890U 25155Q   26262.95678649  .00008150  00000+0  25976-3 0  9992","line2":"2 64890  97.4667 232.4780 0006848 168.5691 191.5708 15.32782489 95291","mean_motion":15.32782489,"eccentricity":0.0006848,"inclination_deg":97.4667,"raan_deg":232.478,"arg_perigee_deg":168.5691,"mean_anomaly_deg":191.5708,"bstar":0.00025976,"rev_number":9529,"period_min":93.946793516637,"perigee_km":462.82714853329,"apogee_km":472.20295358241,"semimajor_km":6845.6520510579,"source":"CELESTRAK","updated_at":"2026-09-20T09:00:45.266812Z"}}